GW0760 Weather Reports


Display with metric or nautical units.
time (UTC)temp
F
wind
direction
speed
MPH
gust
MPH
rain 1hr
in
rain 24hr
in
rain mn
in
humidity
%
barometer
mb
20240525110003 51 167 1.0 2.0 0.00 0.00 0.00 84 1011.3
20240525105503 51 0 0.0 0.0 0.00 0.00 0.00 84 1010.9
20240525105024 51 0 0.0 0.0 0.00 0.00 0.00 85 1010.8
20240525104503 50 0 0.0 0.0 0.00 0.00 0.00 84 1010.3
20240525104003 50 20 1.0 1.0 0.00 0.00 0.00 84 1010.5
20240525103503 50 20 1.0 1.0 0.00 0.00 0.00 83 1010.3
20240525103024 50 20 1.0 1.0 0.00 0.00 0.00 84 1010.7
20240525102503 49 20 0.0 1.0 0.00 0.00 0.00 85 1010.5
20240525102003 49 69 0.0 1.0 0.00 0.00 0.00 86 1010.5
20240525101503 48 102 0.0 1.0 0.00 0.00 0.00 87 1010.3
20240525101024 48 102 0.0 1.0 0.00 0.00 0.00 87 1010.3
20240525100503 48 0 0.0 0.0 0.00 0.00 0.00 87 1010.2
20240525100003 48 0 0.0 0.0 0.00 0.00 0.00 87 1010.5
20240525095503 47 0 0.0 0.0 0.00 0.00 0.00 87 1010.6
20240525095003 47 143 0.0 1.0 0.00 0.00 0.00 88 1010.7
20240525094503 47 143 0.0 1.0 0.00 0.00 0.00 88 1011.1
20240525094024 47 143 0.0 1.0 0.00 0.00 0.00 87 1011.2
20240525093503 47 143 0.0 1.0 0.00 0.00 0.00 87 1010.8
20240525093024 48 143 0.0 1.0 0.00 0.00 0.00 87 1010.8
20240525092503 48 143 0.0 1.0 0.00 0.00 0.00 86 1010.7
20240525092003 48 143 0.0 1.0 0.00 0.00 0.00 86 1011.0
20240525091503 48 143 0.0 1.0 0.00 0.00 0.00 87 1010.9
20240525091003 48 143 0.0 1.0 0.00 0.00 0.00 85 1010.8
20240525090503 48 141 0.0 2.0 0.00 0.00 0.00 85 1011.1
20240525090003 48 125 1.0 2.0 0.00 0.00 0.00 86 1010.8
20240525085503 48 91 0.0 1.0 0.00 0.00 0.00 86 1010.8
20240525085003 48 84 0.0 1.0 0.00 0.00 0.00 84 1010.9
20240525084524 48 87 1.0 1.0 0.00 0.00 0.00 84 1010.9
20240525084003 49 90 0.0 1.0 0.00 0.00 0.00 84 1010.8
20240525083503 49 0 0.0 0.0 0.00 0.00 0.00 84 1010.7
20240525083003 49 0 0.0 0.0 0.00 0.00 0.00 84 1010.9
20240525082524 49 0 0.0 0.0 0.00 0.00 0.00 84 1010.7
20240525082003 49 0 0.0 0.0 0.00 0.00 0.00 83 1010.5
20240525081524 49 145 0.0 1.0 0.00 0.00 0.00 82 1010.5
20240525081003 49 148 0.0 1.0 0.00 0.00 0.00 82 1010.7
20240525080524 49 146 0.0 1.0 0.00 0.00 0.00 81 1010.6
20240525080003 50 112 0.0 1.0 0.00 0.00 0.00 80 1010.8
20240525075503 50 99 0.0 1.0 0.00 0.00 0.00 81 1010.7
20240525075003 50 98 0.0 1.0 0.00 0.00 0.00 77 1010.6
20240525074503 51 102 0.0 1.0 0.00 0.00 0.00 76 1010.7
20240525074003 51 104 0.0 1.0 0.00 0.00 0.00 77 1010.9
20240525073503 51 146 0.0 1.0 0.00 0.00 0.00 75 1010.8
20240525073003 52 182 1.0 2.0 0.00 0.00 0.00 75 1010.6
20240525072503 52 185 1.0 2.0 0.00 0.00 0.00 75 1010.7
20240525072003 53 166 1.0 2.0 0.00 0.00 0.00 75 1010.6
20240525071503 53 43 0.0 1.0 0.00 0.00 0.00 74 1010.7
20240525071003 53 24 0.0 1.0 0.00 0.00 0.00 71 1010.7
20240525070524 53 33 0.0 1.0 0.00 0.00 0.00 71 1010.4
20240525070003 54 55 0.0 1.0 0.00 0.00 0.00 72 1010.6
20240525065524 54 321 0.0 1.0 0.00 0.00 0.00 71 1010.6
20240525065024 54 321 0.0 1.0 0.00 0.00 0.00 71 1010.5
20240525064524 54 317 1.0 2.0 0.00 0.00 0.00 69 1010.8
20240525064024 54 333 1.0 4.0 0.00 0.00 0.00 70 1010.7
20240525063524 54 344 1.0 4.0 0.00 0.00 0.00 70 1010.9
20240525063003 54 327 1.0 3.0 0.00 0.00 0.00 72 1010.6
20240525062503 54 336 1.0 8.0 0.00 0.00 0.00 73 1010.4
20240525062003 54 345 1.0 8.0 0.00 0.00 0.00 74 1010.5
20240525061503 53 150 1.0 8.0 0.00 0.00 0.00 76 1010.7
20240525061003 53 148 1.0 1.0 0.00 0.00 0.00 76 1010.6
20240525060503 53 147 0.0 2.0 0.00 0.00 0.00 75 1010.7
20240525060003 54 144 0.0 2.0 0.00 0.00 0.00 75 1010.6
20240525055503 54 137 0.0 1.0 0.00 0.00 0.00 73 1010.6
20240525055003 54 0 0.0 0.0 0.00 0.00 0.00 74 1010.6
20240525054503 54 0 0.0 0.0 0.00 0.00 0.00 73 1010.7
20240525054003 55 0 0.0 0.0 0.00 0.00 0.00 74 1010.7
20240525053503 55 0 0.0 0.0 0.00 0.00 0.00 74 1010.5
20240525053003 55 0 0.0 0.0 0.00 0.00 0.00 74 1010.4
20240525052503 55 10 0.0 1.0 0.00 0.00 0.00 71 1010.4
20240525052003 55 22 0.0 1.0 0.00 0.00 0.00 71 1010.6
20240525051503 55 27 0.0 1.0 0.00 0.00 0.00 72 1010.6
20240525051003 55 181 0.0 1.0 0.00 0.00 0.00 71 1010.5
20240525050503 56 180 0.0 1.0 0.00 0.00 0.00 69 1010.5
20240525050003 56 180 0.0 1.0 0.00 0.00 0.00 70 1010.5
20240525045503 57 180 0.0 1.0 0.00 0.00 0.00 67 1010.6
20240525045003 57 181 0.0 1.0 0.00 0.00 0.00 67 1010.4
20240525044503 58 156 1.0 1.0 0.00 0.00 0.00 66 1010.4
20240525044003 58 114 1.0 1.0 0.00 0.00 0.00 67 1010.2
20240525043503 58 111 0.0 1.0 0.00 0.00 0.00 63 1010.5
20240525043003 59 355 1.0 3.0 0.00 0.00 0.00 64 1010.7
20240525042503 59 338 1.0 3.0 0.00 0.00 0.00 63 1010.5
20240525042003 59 334 1.0 4.0 0.00 0.00 0.00 62 1010.4
20240525041503 60 334 1.0 4.0 0.00 0.00 0.00 62 1010.5
20240525041024 60 333 1.0 6.0 0.00 0.00 0.00 61 1010.3
20240525040503 60 334 1.0 6.0 0.00 0.00 0.00 61 1010.3
20240525040003 60 344 1.0 4.0 0.00 0.00 0.00 61 1010.2
20240525035503 60 345 1.0 4.0 0.00 0.00 0.00 61 1009.9
20240525035003 60 338 1.0 3.0 0.00 0.00 0.00 61 1010.2
20240525034503 60 345 1.0 4.0 0.00 0.00 0.00 61 1009.6
20240525034003 60 343 2.0 4.0 0.00 0.00 0.00 62 1009.7
20240525033503 60 327 1.0 4.0 0.00 0.00 0.00 62 1009.7
20240525033003 60 325 1.0 4.0 0.00 0.00 0.00 62 1009.6
20240525032503 60 342 1.0 3.0 0.00 0.00 0.00 62 1009.7
20240525032003 60 20 0.0 3.0 0.00 0.00 0.00 63 1009.4
20240525031503 60 60 0.0 1.0 0.00 0.00 0.00 63 1009.7
20240525031024 60 0 0.0 0.0 0.00 0.00 0.00 61 1009.5
20240525030503 61 0 0.0 0.0 0.00 0.00 0.00 59 1009.5
20240525030003 62 0 0.0 0.0 0.00 0.00 0.00 59 1009.5
20240525025503 63 23 0.0 2.0 0.00 0.00 0.00 56 1009.6
20240525025003 63 358 1.0 3.0 0.00 0.00 0.00 57 1009.3
20240525024503 63 350 1.0 3.0 0.00 0.00 0.00 56 1009.4
20240525024024 63 355 2.0 3.0 0.00 0.00 0.00 56 1009.1
20240525023503 64 341 2.0 6.0 0.00 0.00 0.00 55 1009.1
20240525023024 64 332 1.0 6.0 0.00 0.00 0.00 56 1009.2
20240525022503 64 7 1.0 4.0 0.00 0.00 0.00 57 1009.2
20240525022003 64 37 1.0 3.0 0.00 0.00 0.00 56 1009.4
20240525021503 64 4 1.0 3.0 0.00 0.00 0.00 56 1009.4
20240525021003 65 4 1.0 3.0 0.00 0.00 0.00 54 1009.5
20240525020503 65 4 2.0 4.0 0.00 0.00 0.00 53 1009.4
20240525020024 65 360 2.0 7.0 0.00 0.00 0.00 53 1009.2
20240525015503 66 339 2.0 9.0 0.00 0.00 0.00 53 1009.1
20240525015003 66 335 2.0 9.0 0.00 0.00 0.00 53 1009.1
20240525014503 66 348 2.0 7.0 0.00 0.00 0.00 52 1009.0
20240525014003 67 345 2.0 4.0 0.00 0.00 0.00 51 1008.9
20240525013503 67 339 3.0 9.0 0.00 0.00 0.00 51 1008.6
20240525013013 67 338 3.0 9.0 0.00 0.00 0.00 51 1008.5
20240525012503 67 342 3.0 8.0 0.00 0.00 0.00 50 1008.3
20240525012028 68 348 3.0 8.0 0.00 0.00 0.00 49 1008.5
20240525011503 68 345 3.0 8.0 0.00 0.00 0.00 49 1008.2
20240525011003 69 342 3.0 9.0 0.00 0.00 0.00 49 1008.1
20240525010503 69 341 4.0 9.0 0.00 0.00 0.00 49 1008.1
20240525010003 69 346 4.0 9.0 0.00 0.00 0.00 48 1007.8
20240525005503 69 343 3.0 8.0 0.00 0.00 0.00 48 1007.6
20240525005003 70 340 4.0 9.0 0.00 0.00 0.00 48 1007.7
20240525004503 70 339 3.0 9.0 0.00 0.00 0.00 47 1007.3
20240525004003 70 333 3.0 7.0 0.00 0.00 0.00 47 1007.3
20240525003524 71 343 3.0 7.0 0.00 0.00 0.00 47 1007.0
20240525003003 71 342 3.0 7.0 0.00 0.00 0.00 47 1007.3
20240525002503 72 336 3.0 7.0 0.00 0.00 0.00 45 1006.9
20240525002003 73 329 3.0 7.0 0.00 0.00 0.00 43 1006.7
20240525001503 73 340 3.0 7.0 0.00 0.00 0.00 41 1006.7
20240525001003 73 355 2.0 7.0 0.00 0.00 0.00 38 1006.3
20240525000503 73 11 2.0 6.0 0.00 0.00 0.00 38 1006.1
20240525000003 74 30 1.0 6.0 0.00 0.00 0.00 37 1006.2
20240524235503 73 73 1.0 6.0 0.00 0.00 0.00 38 1005.9
20240524235003 73 117 1.0 6.0 0.00 0.00 0.00 38 1005.8
20240524234503 74 165 1.0 3.0 0.00 0.00 0.00 40 1005.9
20240524234003 74 149 1.0 6.0 0.00 0.00 0.00 38 1005.8
20240524233524 75 119 1.0 7.0 0.00 0.00 0.00 37 1005.5
20240524233003 75 45 1.0 7.0 0.00 0.00 0.00 39 1005.6
20240524232503 76 169 1.0 6.0 0.00 0.00 0.00 35 1005.4
20240524232003 76 350 2.0 6.0 0.00 0.00 0.00 38 1005.3
20240524231524 76 9 2.0 6.0 0.00 0.00 0.00 35 1005.5
20240524231003 76 1 2.0 10.0 0.00 0.00 0.00 34 1005.5
20240524230503 76 358 2.0 10.0 0.00 0.00 0.00 34 1005.3
20240524230003 76 350 3.0 9.0 0.00 0.00 0.00 34 1005.4
20240524225524 77 1 2.0 8.0 0.00 0.00 0.00 35 1005.4
20240524225024 77 58 2.0 11.0 0.00 0.00 0.00 35 1005.4
20240524224503 77 145 3.0 11.0 0.00 0.00 0.00 36 1005.3
20240524224024 77 43 2.0 10.0 0.00 0.00 0.00 35 1005.3
20240524223503 77 299 2.0 7.0 0.00 0.00 0.00 35 1005.3
20240524223003 78 252 2.0 9.0 0.00 0.00 0.00 36 1005.0
20240524222503 78 179 2.0 9.0 0.00 0.00 0.00 36 1005.1
20240524222003 78 184 2.0 13.0 0.00 0.00 0.00 36 1004.9
20240524221503 78 232 2.0 13.0 0.00 0.00 0.00 36 1004.9
20240524221003 78 276 3.0 9.0 0.00 0.00 0.00 37 1005.3
20240524220503 79 12 3.0 7.0 0.00 0.00 0.00 37 1005.1
20240524220003 80 5 2.0 7.0 0.00 0.00 0.00 35 1005.1
20240524215524 80 2 2.0 6.0 0.00 0.00 0.00 39 1005.0
20240524215003 80 359 3.0 8.0 0.00 0.00 0.00 36 1004.9
20240524214524 80 29 3.0 8.0 0.00 0.00 0.00 36 1004.9
20240524214003 80 17 4.0 10.0 0.00 0.00 0.00 34 1005.0
20240524213503 80 352 4.0 10.0 0.00 0.00 0.00 34 1005.0
20240524213003 80 327 3.0 14.0 0.00 0.00 0.00 35 1005.0
20240524212503 81 331 3.0 14.0 0.00 0.00 0.00 35 1004.9
20240524212003 81 348 3.0 10.0 0.00 0.00 0.00 36 1004.8
20240524211503 81 2 3.0 9.0 0.00 0.00 0.00 38 1004.9
20240524211001 80 354 4.0 17.0 0.00 0.00 0.00 36 1004.7
20240524210501 80 333 3.0 17.0 0.00 0.00 0.00 35 1004.8
20240524210022 80 356 3.0 13.0 0.00 0.00 0.00 39 1004.8
20240524205501 80 335 4.0 13.0 0.00 0.00 0.00 35 1004.7
20240524205022 81 329 3.0 13.0 0.00 0.00 0.00 36 1005.1
20240524204523 81 341 3.0 10.0 0.00 0.00 0.00 35 1004.7
20240524204001 80 171 3.0 11.0 0.00 0.00 0.00 35 1004.6
20240524203523 80 7 3.0 16.0 0.00 0.00 0.00 35 1004.7
20240524203002 81 37 3.0 16.0 0.00 0.00 0.00 35 1004.9
20240524202501 82 234 3.0 16.0 0.00 0.00 0.00 37 1004.6
20240524202002 82 330 3.0 16.0 0.00 0.00 0.00 35 1004.5
20240524201501 82 354 2.0 7.0 0.00 0.00 0.00 35 1004.5
20240524201022 81 320 3.0 10.0 0.00 0.00 0.00 35 1004.3
20240524200501 81 315 4.0 18.0 0.00 0.00 0.00 36 1004.5
20240524200001 81 263 4.0 18.0 0.00 0.00 0.00 37 1004.3
20240524195523 82 227 3.0 11.0 0.00 0.00 0.00 34 1004.6
20240524195001 82 303 3.0 11.0 0.00 0.00 0.00 38 1004.6
20240524194501 82 338 3.0 14.0 0.00 0.00 0.00 40 1004.5
20240524194001 82 31 4.0 14.0 0.00 0.00 0.00 36 1004.8
20240524193501 82 85 3.0 13.0 0.00 0.00 0.00 38 1004.7
20240524193002 81 35 3.0 13.0 0.00 0.00 0.00 36 1004.5
20240524192522 82 14 3.0 13.0 0.00 0.00 0.00 33 1004.8
20240524192001 82 17 3.0 16.0 0.00 0.00 0.00 36 1004.9
20240524191502 82 349 3.0 16.0 0.00 0.00 0.00 35 1005.0
20240524191001 82 321 3.0 16.0 0.00 0.00 0.00 37 1005.0
20240524190502 82 325 4.0 16.0 0.00 0.00 0.00 37 1004.9
20240524190002 82 342 3.0 8.0 0.00 0.00 0.00 34 1005.2
20240524185501 82 351 2.0 8.0 0.00 0.00 0.00 36 1005.0
20240524185001 81 359 2.0 10.0 0.00 0.00 0.00 38 1005.0
20240524184502 80 1 3.0 11.0 0.00 0.00 0.00 42 1005.2
20240524184001 80 357 4.0 15.0 0.00 0.00 0.00 37 1005.2
20240524183501 81 354 3.0 15.0 0.00 0.00 0.00 36 1005.4
20240524183001 81 309 3.0 10.0 0.00 0.00 0.00 34 1005.4
20240524182501 82 193 3.0 10.0 0.00 0.00 0.00 35 1005.3
20240524182001 82 167 3.0 10.0 0.00 0.00 0.00 36 1005.3
20240524181523 82 158 3.0 10.0 0.00 0.00 0.00 35 1005.3
20240524181001 82 324 3.0 9.0 0.00 0.00 0.00 34 1005.4
20240524180502 82 303 3.0 9.0 0.00 0.00 0.00 35 1005.4
20240524180001 82 52 3.0 11.0 0.00 0.00 0.00 33 1005.5
20240524175502 82 109 3.0 11.0 0.00 0.00 0.00 37 1005.6
20240524175001 82 232 3.0 9.0 0.00 0.00 0.00 38 1005.6
20240524174522 82 282 3.0 13.0 0.00 0.00 0.00 33 1005.6
20240524174001 81 251 3.0 13.0 0.00 0.00 0.00 34 1005.6
20240524173501 81 268 3.0 18.0 0.00 0.00 0.00 32 1005.7
20240524173001 81 282 3.0 18.0 0.00 0.00 0.00 31 1005.7
20240524172502 81 146 3.0 11.0 0.00 0.00 0.00 34 1005.9
20240524172001 80 204 4.0 11.0 0.00 0.00 0.00 33 1005.8
20240524171523 80 268 4.0 14.0 0.00 0.00 0.00 32 1005.8
20240524171001 80 331 4.0 14.0 0.00 0.00 0.00 34 1005.9
20240524170501 80 16 3.0 7.0 0.00 0.00 0.00 33 1006.1
20240524170023 80 20 3.0 11.0 0.00 0.00 0.00 35 1005.9
20240524165523 80 55 3.0 11.0 0.00 0.00 0.00 33 1006.1
20240524165001 80 86 3.0 9.0 0.00 0.00 0.00 32 1005.9
20240524164501 80 68 3.0 11.0 0.00 0.00 0.00 35 1006.0
20240524164002 79 211 3.0 11.0 0.00 0.00 0.00 36 1006.1
20240524163501 79 203 2.0 8.0 0.00 0.00 0.00 41 1005.9
20240524163023 78 166 3.0 9.0 0.00 0.00 0.00 42 1006.1
20240524162501 78 186 3.0 9.0 0.00 0.00 0.00 44 1006.0
20240524162001 77 176 3.0 8.0 0.00 0.00 0.00 43 1006.0
20240524161502 78 168 3.0 15.0 0.00 0.00 0.00 44 1006.2
20240524161001 78 199 4.0 15.0 0.00 0.00 0.00 44 1006.8
20240524160501 79 352 3.0 9.0 0.00 0.00 0.00 40 1006.7
20240524160002 78 10 3.0 8.0 0.00 0.00 0.00 42 1006.6
20240524155501 77 199 3.0 10.0 0.00 0.00 0.00 41 1006.5
20240524155002 77 205 3.0 10.0 0.00 0.00 0.00 40 1006.6
20240524154501 76 208 4.0 13.0 0.00 0.00 0.00 43 1006.5
20240524154002 77 189 4.0 13.0 0.00 0.00 0.00 39 1006.8
20240524153502 77 150 3.0 7.0 0.00 0.00 0.00 42 1006.7
20240524153002 78 330 3.0 8.0 0.00 0.00 0.00 39 1007.0
20240524152502 77 347 3.0 8.0 0.00 0.00 0.00 40 1006.9
20240524152001 77 339 4.0 15.0 0.00 0.00 0.00 40 1007.1
20240524151522 77 246 3.0 15.0 0.00 0.00 0.00 40 1007.2
20240524151001 77 52 3.0 9.0 0.00 0.00 0.00 37 1007.1
20240524150502 77 43 3.0 9.0 0.00 0.00 0.00 41 1007.3
20240524150001 77 167 3.0 24.0 0.00 0.00 0.00 39 1007.2
20240524145501 77 169 3.0 24.0 0.00 0.00 0.00 36 1007.4
20240524145023 77 51 2.0 7.0 0.00 0.00 0.00 42 1007.3
20240524144522 77 8 2.0 6.0 0.00 0.00 0.00 39 1007.5
20240524144001 77 345 2.0 9.0 0.00 0.00 0.00 43 1007.4
20240524143501 76 14 2.0 9.0 0.00 0.00 0.00 41 1007.6
20240524143002 76 86 2.0 10.0 0.00 0.00 0.00 42 1007.7
20240524142502 76 341 2.0 10.0 0.00 0.00 0.00 41 1007.7
20240524142002 76 360 2.0 9.0 0.00 0.00 0.00 43 1007.7
20240524141501 76 281 2.0 9.0 0.00 0.00 0.00 41 1007.9
20240524141022 76 219 2.0 7.0 0.00 0.00 0.00 49 1007.7
20240524140501 75 151 2.0 7.0 0.00 0.00 0.00 47 1007.9
20240524140001 75 193 1.0 6.0 0.00 0.00 0.00 47 1007.9
20240524135502 75 200 2.0 9.0 0.00 0.00 0.00 48 1008.0
20240524135002 74 186 2.0 9.0 0.00 0.00 0.00 50 1008.1
20240524134501 74 181 2.0 10.0 0.00 0.00 0.00 51 1008.2
20240524134002 74 187 2.0 10.0 0.00 0.00 0.00 47 1008.1
20240524133502 73 153 1.0 4.0 0.00 0.00 0.00 52 1008.3
20240524133002 73 96 1.0 3.0 0.00 0.00 0.00 53 1008.2
20240524132501 73 81 1.0 3.0 0.00 0.00 0.00 57 1008.6
20240524132001 73 79 2.0 6.0 0.00 0.00 0.00 52 1008.5
20240524131523 73 125 2.0 7.0 0.00 0.00 0.00 51 1008.7
20240524131001 73 340 3.0 13.0 0.00 0.00 0.00 49 1008.7
20240524130501 72 355 2.0 13.0 0.00 0.00 0.00 50 1008.8
20240524130023 72 44 2.0 6.0 0.00 0.00 0.00 51 1008.8
20240524125502 72 136 2.0 6.0 0.00 0.00 0.00 56 1009.0
20240524125001 71 121 2.0 7.0 0.00 0.00 0.00 57 1008.6
20240524124501 71 182 2.0 7.0 0.00 0.00 0.00 60 1008.8
20240524124001 70 190 2.0 4.0 0.00 0.00 0.00 59 1008.9
20240524123502 69 163 1.0 4.0 0.00 0.00 0.00 63 1009.0
20240524123002 68 141 1.0 3.0 0.00 0.00 0.00 68 1008.9
20240524122501 67 141 1.0 2.0 0.00 0.00 0.00 69 1008.9
20240524122002 67 141 1.0 2.0 0.00 0.00 0.00 70 1009.0
20240524121502 65 141 1.0 2.0 0.00 0.00 0.00 73 1009.3
20240524121002 65 141 0.0 2.0 0.00 0.00 0.00 75 1009.2
20240524120502 64 141 0.0 1.0 0.00 0.00 0.00 77 1009.4
20240524120023 64 141 0.0 1.0 0.00 0.00 0.00 76 1009.3
20240524115502 63 140 0.0 1.0 0.00 0.00 0.00 78 1009.3
20240524115002 63 132 0.0 1.0 0.00 0.00 0.00 79 1009.3
20240524114502 62 129 0.0 1.0 0.00 0.00 0.00 79 1009.5
20240524114002 62 129 0.0 1.0 0.00 0.00 0.00 78 1009.3
20240524113523 61 128 0.0 1.0 0.00 0.00 0.00 82 1009.3
20240524113001 60 127 0.0 1.0 0.00 0.00 0.00 82 1009.1
20240524112502 60 0 0.0 0.0 0.00 0.00 0.00 83 1009.3
20240524112022 59 0 0.0 0.0 0.00 0.00 0.00 83 1009.1
20240524111502 58 0 0.0 0.0 0.00 0.00 0.00 86 1009.3
20240524111002 57 141 0.0 2.0 0.00 0.00 0.00 88 1008.9
20240524110501 57 156 1.0 2.0 0.00 0.00 0.00 88 1009.0